Nantucket, MA

7:08 PM EST on February 27, 2017 (GMT -0500)
Nantucket Memorial

Weather History for KACK - April, 2014

Change the Weather History Date:

Monday, April 28, 2014

  Actual Average Record
Temperature  
Mean Temperature 48 °F -  
Max Temperature 52 °F 53 °F 68 °F (1979)
Min Temperature 44 °F 40 °F 30 °F (1975)
Degree Days  
Heating Degree Days 17    
Moisture  
Dew Point 37 °F    
Average Humidity 70    
Maximum Humidity 85    
Minimum Humidity 54    
Precipitation  
Precipitation 0.00 in - - ()
Sea Level Pressure  
Sea Level Pressure 30.06 in    
Wind  
Wind Speed 18 mph (North)    
Max Wind Speed 25 mph    
Max Gust Speed 31 mph    
Visibility 10 miles    
Events      
Averages and records for this station are not official NWS values.
T = Trace of Precipitation, MM = Missing Value Source: NWS Daily Summary

Daily Weather History Graph

Daily Weather History Graph

Search for Another Location

Airport or City:

Trip Planner

Search our weather history database for the weather conditions in past years. The results will help you decide how hot, cold, wet, or windy it might be!

Date:

Astronomy

Apr. 28, 2014 Rise Set
Actual Time 5:41 AM EDT 7:34 PM EDT
Civil Twilight 5:12 AM EDT 8:04 PM EDT
Nautical Twilight 4:36 AM EDT 8:40 PM EDT
Astronomical Twilight 3:57 AM EDT 9:19 PM EDT
Moon 5:18 AM EDT 7:08 PM EDT
Length of Visible Light 14h 51m
Length of Day
13h 52m
Waning Crescent, 0% of the Moon is Illuminated
Apr 28
Waning Crescent
Apr 29
New
May 6
First Quarter
May 14
Full
May 21
Last Quarter

Hourly Weather History & Observations

Time (EDT) Temp. Windchill Dew Point Humidity Pressure Visibility Wind Dir Wind Speed Gust Speed Precip Events Conditions
12:53 AM 44.1 °F 38.1 °F 39.9 °F 85% 30.00 in 10.0 mi WNW 11.5 mph - N/A   Clear
2:53 AM 45.0 °F 36.9 °F 39.0 °F 80% 29.99 in 10.0 mi NNW 20.7 mph 25.3 mph N/A   Clear
4:53 AM 44.1 °F 36.5 °F 36.0 °F 73% 29.96 in 10.0 mi NNW 17.3 mph - N/A   Clear
6:53 AM 45.0 °F 37.4 °F 37.0 °F 74% 29.97 in 10.0 mi North 18.4 mph 23.0 mph N/A   Clear
7:53 AM 46.9 °F - 37.0 °F 68% 29.99 in 10.0 mi North 18.4 mph - N/A   Clear
8:53 AM 48.9 °F - 37.0 °F 64% 29.99 in 10.0 mi North 17.3 mph - N/A   Clear
10:53 AM 51.1 °F - 36.0 °F 56% 30.02 in 10.0 mi NNW 17.3 mph 25.3 mph N/A   Scattered Clouds
11:53 AM 50.0 °F - 37.0 °F 61% 30.02 in 10.0 mi NNW 18.4 mph 25.3 mph N/A   Scattered Clouds
12:53 PM 52.0 °F - 36.0 °F 54% 30.03 in 10.0 mi North 16.1 mph 27.6 mph N/A   Mostly Cloudy
1:18 PM 50.0 °F - 35.6 °F 58% 30.01 in 10.0 mi North 18.4 mph 27.6 mph N/A   Overcast
1:53 PM 50.0 °F - 36.0 °F 59% 30.01 in 10.0 mi North 19.6 mph 26.5 mph N/A   Overcast
2:53 PM 50.0 °F - 37.0 °F 61% 30.01 in 10.0 mi North 23.0 mph - N/A   Overcast
3:53 PM 48.0 °F - 36.0 °F 63% 30.04 in 10.0 mi North 16.1 mph - N/A   Overcast
5:53 PM 46.9 °F - 37.9 °F 71% 30.08 in 10.0 mi NNE 19.6 mph - N/A   Overcast
6:00 PM 46.4 °F 39.5 °F 37.4 °F 71% 30.08 in 10.0 mi NNE 17.3 mph - N/A   Overcast
6:53 PM 46.9 °F - 37.0 °F 68% 30.08 in 10.0 mi NNE 20.7 mph 27.6 mph N/A   Overcast
7:53 PM 46.0 °F 39.3 °F 37.9 °F 73% 30.11 in 10.0 mi NNE 16.1 mph 21.9 mph N/A   Overcast
8:53 PM 45.0 °F 37.4 °F 39.0 °F 80% 30.13 in 10.0 mi NNE 18.4 mph 24.2 mph N/A   Overcast
9:39 PM 44.6 °F 36.6 °F 39.2 °F 81% 30.13 in 10.0 mi NNE 19.6 mph 27.6 mph N/A   Mostly Cloudy
9:53 PM 45.0 °F 36.4 °F 39.0 °F 80% 30.14 in 10.0 mi NNE 23.0 mph 31.1 mph N/A   Overcast
10:26 PM 44.6 °F 36.4 °F 37.4 °F 76% 30.13 in 10.0 mi NNE 20.7 mph 31.1 mph N/A   Scattered Clouds
11:21 PM 44.6 °F 35.9 °F 37.4 °F 76% 30.16 in 10.0 mi NNE 23.0 mph 31.1 mph N/A   Overcast
11:28 PM 44.6 °F 36.4 °F 37.4 °F 76% 30.16 in 10.0 mi NNE 20.7 mph 31.1 mph N/A   Overcast
11:53 PM 44.1 °F 34.8 °F 37.0 °F 76% 30.16 in 10.0 mi NNE 25.3 mph 31.1 mph N/A   Overcast